Home > Weather > Medellin > Past weeks

Flag for Colombia Past Weather in Medellin, Colombia — Yesterday and Last 2 Weeks

Now
61 °F

Passing clouds.


Feels Like: 61 °F
Forecast: 61 / 86 °F
Wind: 5 mph from East

Location: Rionegro / J. M. Cordova

Current Time: Jul 28, 2016 at 11:02:47 PM

Latest Report: Jul 28, 2016 at 10:00 PM


Visibility: N/A

Pressure: 30.32 "Hg (25.46 "Hg at 1479m altitude)

Humidity: 83%

Dew Point: 55 °F

Location of MedellinLocation

Past Weather in Medellin — Graph

°F

Medellin Temperature Yesterday

Maximum temperature yesterday: 73 °F (at 1:00 PM)
Minimum temperature yesterday: 55 °F (at 4:00 AM)
Average temperature yesterday: 63 °F

High & Low Weather Summary for the Past Weeks

 TemperatureHumidityPressure
High73 °F (Jul 14, 4:00 PM)100% (Jul 14, 12:00 AM)30.38 "Hg (Jul 14, 12:00 AM)
Low52 °F (Jul 17, 5:00 AM)38% (Jul 21, 3:00 PM)30.18 "Hg (Jul 26, 4:00 PM)
Average63 °F78%30.29 "Hg
* Reported Jul 13 10:00 PM — Jul 28 10:00 PM, Medellin, Weather by CustomWeather, © 2016

Note: Actual official high and low records may vary slightly from our data, if they occured in-between our weather recording intervals... More about our weather records

Advertising

Medellin Weather History for the Previous 24 Hours

Scroll right to see more
 ConditionsComfort  
Time TempWeatherWind HumidityBarometerVisibility
10:00 PM
Thu, Jul 28
61 °FPassing clouds.5 mph83%30.32 "HgN/A
9:00 PM61 °FPassing clouds.5 mph77%30.28 "HgN/A
8:00 PM63 °FPassing clouds.2 mph77%30.26 "HgN/A
7:00 PM64 °FPassing clouds.2 mph68%30.25 "HgN/A
6:00 PM66 °FScattered clouds.7 mph60%30.22 "HgN/A
5:00 PM70 °FScattered clouds.12 mph50%30.20 "HgN/A
4:00 PM72 °FScattered clouds.12 mph47%30.19 "HgN/A
3:00 PM72 °FScattered clouds.14 mph47%30.21 "HgN/A
2:00 PM72 °FScattered clouds.14 mph44%30.23 "HgN/A
1:00 PM72 °FScattered clouds.12 mph44%30.26 "HgN/A
12:00 PM72 °FScattered clouds.12 mph47%30.27 "HgN/A
11:00 AM72 °FScattered clouds.12 mph50%30.28 "HgN/A
10:00 AM70 °FPartly sunny.12 mph50%30.30 "HgN/A
9:00 AM66 °FPartly sunny.7 mph64%30.30 "HgN/A
8:00 AM59 °FPartly sunny.No wind82%30.29 "HgN/A
7:00 AM54 °FPartly sunny.No wind88%30.28 "HgN/A
6:00 AM54 °FFog.No wind94%30.26 "HgN/A
5:00 AM55 °FPassing clouds.No wind88%30.26 "HgN/A
4:00 AM55 °FPartly cloudy.35 mph88%30.27 "HgN/A
3:00 AM57 °FPassing clouds.No wind94%30.26 "HgN/A
2:00 AM57 °FPassing clouds.2 mph94%30.27 "HgN/A
1:00 AM57 °FPassing clouds.No wind88%30.28 "HgN/A
12:00 AM59 °FPassing clouds.3 mph82%30.30 "HgN/A
11:00 PM
Wed, Jul 27
59 °FPassing clouds.3 mph82%30.30 "HgN/A
Weather by CustomWeather, © 2016

See weather overviewHow to use our weather pages